Powrót do katalogu

ATLAS 5 CENTAUR DEB

AktywnyHEO
NORAD 44655·DEBRIS·🇺🇸 United States

Wystrzelony Oct 17, 2018 z Cape Canaveral Space Force Station

Loading…

Następne Przeloty (najbliższe 24 godziny)

TLE

Starzejące sięSource: Space-Track

Epoka: Aug 30, 2026, 09:00 UTC

1 44655U 18079R   26242.37547574 -.00000137  00000-0  00000-0 0  9999
2 44655  13.9264  13.5230 4735732 352.5422   2.2397  1.83835076 52853

Śledź ATLAS 5 CENTAUR DEB w czasie rzeczywistym z AllMySat

Download on the App Store